Powrót do katalogu

THORAD DELTA 1 DEB

AktywnySSO
NORAD 42592·DEBRIS·🇺🇸 United States

Wystrzelony Nov 15, 1974 z Vandenberg Space Force Base

Loading…

Następne Przeloty (najbliższe 24 godziny)

TLE

NieaktualneSource: Space-Track

Epoka: Sep 1, 2026, 19:09 UTC

1 42592U 74089CW  26244.79819242  .00000006  00000-0  33671-3 0  9999
2 42592 101.8694 195.3361 0033867  93.8618 266.6325 12.50321595542311

Śledź THORAD DELTA 1 DEB w czasie rzeczywistym z AllMySat

Download on the App Store